x

South Uist Range (03023) Weather Station

6:00 - Thu 18th Dec 2014 All times are GMT.

  • Wind
    26mph, 38mph gusts
  • Luft Temp 47°f
  • Sea Pressure 991mb
  • South Uist Range
  • South Uist Range

More Historic Weather Station data

Upgrade to MSW Pro to gain access to the past 30 days of data for over 8000 Wavebouys and Weather Stations around the globe.

Join Pro

Comparision Forecast

View Surf forecast
   
Do 12/18 6:00 26 38 mph 991mb 47f
5:00 25 41 mph 991mb 46f
4:00 31 45 mph 991mb 47f
3:00 31 47 mph 992mb 47f
2:00 31 40 mph 992mb 47f
1:00 33 48 mph 992mb 47f
12:00 30 43 mph 993mb 48f
Mi 12/17 11:00 29 44 mph 993mb 47f
10:00 31 44 mph 994mb 47f
9:00 28 40 mph 994mb 47f
8:00 25 36 mph 994mb 47f
7:00 23 37 mph 994mb 47f
6:00 23 38 mph 995mb 48f
5:00 24 34 mph 995mb 47f
4:00 29 38 mph 995mb 46f
3:00 19 32 mph 995mb 47f
2:00 23 34 mph 995mb 47f
1:00 26 33 mph 995mb 47f
12:00 23 39 mph 996mb 47f
11:00 25 33 mph 995mb 47f
10:00 23 31 mph 995mb 47f
9:00 21 31 mph 995mb 47f
8:00 21 36 mph 995mb 47f
7:00 17 30 mph 995mb 48f
6:00 14 29 mph 994mb 48f
5:00 17
mph
994mb 49f
4:00 16 29 mph 994mb 49f
3:00 19 32 mph 993mb 49f
2:00 23 36 mph 993mb 49f
1:00 25 33 mph 992mb 49f
12:00 24 31 mph 991mb 50f
Di 12/16 11:00 22 31 mph 990mb 50f
10:00 23 31 mph 990mb 50f
9:00 24 40 mph 990mb 50f
8:00 31 48 mph 991mb 46f
7:00 28 40 mph 993mb 44f
6:00 21
mph
996mb 44f
5:00 17
mph
999mb 43f
4:00 15
mph
1001mb 43f
3:00 14
mph
1004mb 42f
2:00 10
mph
1006mb 41f
1:00 9
mph
1007mb 40f
12:00 9
mph
1008mb 38f
10:00 1
mph
1009mb 39f
9:00 7
mph
1009mb 40f
8:00 11
mph
1009mb 42f
7:00 15
mph
1009mb 42f
6:00 16
mph
1009mb 42f
5:00 18 36 mph 1008mb 41f
4:00 19 40 mph 1008mb 41f
3:00 23 43 mph 1008mb 39f
2:00 30 48 mph 1007mb 40f
1:00 26 39 mph 1006mb 43f
12:00 30 45 mph 1005mb 43f
Mo 12/15 11:00 25 37 mph 1005mb 43f
10:00 26 48 mph 1004mb 41f
9:00 25 43 mph 1004mb 43f
8:00 31 49 mph 1004mb 42f
7:00 26 44 mph 1003mb 44f
6:00 25 52 mph 1003mb 43f
5:00 25 46 mph 1003mb 43f
4:00 28 40 mph 1003mb 44f
3:00 21 41 mph 1003mb 43f
2:00 21 41 mph 1003mb 42f
1:00 22 30 mph 1003mb 43f
12:00 17
mph
1003mb 41f
11:00 13
mph
1004mb 40f
10:00 14
mph
1003mb 39f
9:00 7
mph
1003mb 39f
8:00 11
mph
1002mb 38f
7:00 17
mph
1001mb 41f
6:00 14 33 mph 1001mb 39f
5:00 13 39 mph 1000mb 40f
4:00 21 31 mph 999mb 42f
3:00 19 32 mph 998mb 40f
2:00 26 36 mph 997mb 42f
1:00 24 41 mph 997mb 41f
12:00 24 41 mph 996mb 41f
So 12/14 11:00 31 44 mph 995mb 42f
10:00 34 47 mph 995mb 42f
9:00 32 53 mph 994mb 40f
8:00 29 49 mph 993mb 41f
7:00 36 54 mph 992mb 42f
6:00 38 52 mph 991mb 43f
5:00 39 54 mph 991mb 43f
4:00 38 57 mph 991mb 40f
3:00 46 57 mph 990mb 40f
2:00 36 62 mph 989mb 41f
1:00 45 67 mph 989mb 40f
12:00 41 54 mph 988mb 44f
11:00 45 61 mph 988mb 44f
10:00 45 61 mph 988mb 42f
9:00 46 64 mph 987mb 42f
8:00 34
mph
986mb 46f